| time (UTC) | temp C | wind direction | speed KPH | gust KPH | rain 1hr cm | rain 24hr cm | rain mn cm | humidity % | barometer mb |
| 20260504004821 | 12 | 107 | 4.8 | 12.9 | 0.00 | 0.00 | 0.00 | 52 | 1019.1 |
| 20260504002821 | 12 | 96 | 4.8 | 12.9 | 0.00 | 0.00 | 0.00 | 51 | 1019.5 |
| 20260504000820 | 12 | 147 | 4.8 | 14.5 | 0.00 | 0.00 | 0.00 | 50 | 1019.4 |
| 20260503234820 | 12 | 117 | 4.8 | 14.5 | 0.00 | 0.00 | 0.00 | 49 | 1019.4 |
| 20260503232820 | 12 | 112 | 4.8 | 16.1 | 0.00 | 0.00 | 0.00 | 50 | 1019.5 |
| 20260503230820 | 12 | 119 | 6.4 | 16.1 | 0.00 | 0.00 | 0.00 | 48 | 1019.7 |
| 20260503224820 | 13 | 103 | 6.4 | 14.5 | 0.00 | 0.00 | 0.00 | 47 | 1019.7 |
| 20260503222819 | 13 | 117 | 6.4 | 17.7 | 0.00 | 0.00 | 0.00 | 46 | 1020.0 |
| 20260503220819 | 13 | 150 | 6.4 | 24.1 | 0.00 | 0.00 | 0.00 | 46 | 1019.8 |
| 20260503214819 | 13 | 148 | 6.4 | 24.1 | 0.00 | 0.00 | 0.00 | 47 | 1019.7 |
| 20260503212819 | 13 | 122 | 8.0 | 16.1 | 0.00 | 0.00 | 0.00 | 47 | 1019.7 |
| 20260503210819 | 13 | 113 | 6.4 | 16.1 | 0.00 | 0.00 | 0.00 | 47 | 1020.0 |
| 20260503204819 | 14 | 114 | 6.4 | 16.1 | 0.00 | 0.00 | 0.00 | 46 | 1019.9 |
| 20260503202818 | 14 | 82 | 6.4 | 16.1 | 0.00 | 0.00 | 0.00 | 48 | 1020.1 |
| 20260503200818 | 14 | 154 | 4.8 | 17.7 | 0.00 | 0.00 | 0.00 | 50 | 1020.4 |
| 20260503194818 | 14 | 95 | 4.8 | 11.3 | 0.00 | 0.00 | 0.00 | 52 | 1020.3 |
| 20260503192818 | 14 | 125 | 6.4 | 12.9 | 0.00 | 0.00 | 0.00 | 52 | 1020.1 |
| 20260503190818 | 15 | 121 | 4.8 | 12.9 | 0.00 | 0.00 | 0.00 | 50 | 1020.1 |
| 20260503184818 | 15 | 89 | 3.2 | 11.3 | 0.00 | 0.00 | 0.00 | 49 | 1020.2 |
| 20260503182817 | 16 | 110 | 4.8 | 11.3 | 0.00 | 0.00 | 0.00 | 47 | 1020.0 |
| 20260503180817 | 17 | 192 | 4.8 | 12.9 | 0.00 | 0.00 | 0.00 | 44 | 1020.0 |
| 20260503174817 | 18 | 181 | 8.0 | 22.5 | 0.00 | 0.00 | 0.00 | 42 | 1019.7 |
| 20260503172817 | 18 | 176 | 9.7 | 22.5 | 0.00 | 0.00 | 0.00 | 40 | 1019.9 |
| 20260503170817 | 19 | 187 | 11.3 | 24.1 | 0.00 | 0.00 | 0.00 | 40 | 1020.1 |
| 20260503150817 | 20 | 188 | 11.3 | 25.7 | 0.00 | 0.00 | 0.00 | 38 | 1020.5 |
| 20260503130817 | 20 | 198 | 14.5 | 29.0 | 0.00 | 0.00 | 0.00 | 38 | 1021.7 |
| 20260503110817 | 18 | 196 | 12.9 | 33.8 | 0.00 | 0.00 | 0.00 | 41 | 1022.8 |
| 20260503080817 | 16 | 187 | 12.9 | 27.4 | 0.00 | 0.00 | 0.00 | 48 | 1023.5 |
| 20260503072817 | 15 | 205 | 11.3 | 24.1 | 0.00 | 0.00 | 0.00 | 50 | 1023.4 |
| 20260503070817 | 14 | 181 | 11.3 | 30.6 | 0.00 | 0.00 | 0.00 | 51 | 1023.2 |
| 20260503054817 | 12 | 146 | 9.7 | 22.5 | 0.00 | 0.00 | 0.00 | 56 | 1022.6 |
| 20260503052817 | 11 | 149 | 9.7 | 24.1 | 0.00 | 0.00 | 0.00 | 57 | 1022.6 |
| 20260503050817 | 11 | 165 | 9.7 | 20.9 | 0.00 | 0.00 | 0.00 | 58 | 1022.7 |
| 20260503044817 | 10 | 126 | 6.4 | 14.5 | 0.00 | 0.00 | 0.00 | 61 | 1022.7 |
| 20260503042817 | 10 | 116 | 6.4 | 16.1 | 0.00 | 0.00 | 0.00 | 62 | 1022.6 |
| 20260503040817 | 9 | 127 | 6.4 | 14.5 | 0.00 | 0.00 | 0.00 | 62 | 1022.6 |
| 20260503034817 | 9 | 89 | 4.8 | 12.9 | 0.00 | 0.00 | 0.00 | 61 | 1022.5 |
| 20260503032817 | 10 | 74 | 3.2 | 9.7 | 0.00 | 0.00 | 0.00 | 58 | 1022.5 |
| 20260503030817 | 10 | 57 | 1.6 | 6.4 | 0.00 | 0.00 | 0.00 | 57 | 1022.6 |
| 20260503024817 | 10 | 57 | 3.2 | 9.7 | 0.00 | 0.00 | 0.00 | 54 | 1022.4 |
| 20260503022817 | 11 | 47 | 3.2 | 6.4 | 0.00 | 0.00 | 0.00 | 51 | 1022.3 |
| 20260503020817 | 12 | 24 | 1.6 | 9.7 | 0.00 | 0.00 | 0.00 | 47 | 1022.5 |
| 20260503014817 | 12 | 18 | 1.6 | 6.4 | 0.00 | 0.00 | 0.00 | 46 | 1022.2 |
| 20260503012817 | 12 | 46 | 3.2 | 6.4 | 0.00 | 0.00 | 0.00 | 48 | 1022.5 |
| 20260503010817 | 12 | 45 | 3.2 | 4.8 | 0.00 | 0.00 | 0.00 | 48 | 1022.4 |